Skip Page Navigation
NASA JPL Caltech
NASA Logo - Jet Propulsion Laboratory + View the NASA Portal
+ Center for Near-Earth Object Studies
JPL Home Earth Solar System Stars & Galaxies Technology
JPL Solar System Dynamics
BODIES ORBITS EPHEMERIDES TOOLS PHYSICAL DATA DISCOVERY FAQ SITE MAP
IMPORTANT: The SSD Announcement email list is now available. Major changes are coming in the near future, including possible hostname and/or URL changes. To be notified of such changes, subscribe to this email list.

Please visit this page for more details.


JPL Small-Body Database Browser
Search: [ help ]  
85386 Payton (1996 OU2)
Classification: Main-belt Asteroid          SPK-ID: 2085386
Ephemeris | Orbit Diagram | Orbital Elements | Mission Design | Physical Parameters | Discovery Circumstances ]

[ show orbit diagram ]
Orbital Elements at Epoch 2458600.5 (2019-Apr-27.0) TDB
Reference: JPL 20 (heliocentric ecliptic J2000)
 Element Value Uncertainty (1-sigma)   Units 
e .1129688484658442 5.4175e-08  
a 2.687392781609713 1.4768e-08 au
q 2.383801113695842 1.4943e-07 au
i 13.62044110518298 6.5943e-06 deg
node 310.6196547285619 1.8117e-05 deg
peri 38.76919938772915 3.0743e-05 deg
M 19.38122505363309 2.4881e-05 deg
tp 2458513.868891771755
(2019-Jan-30.36889177)
0.00011099 TDB
period 1609.144874788088
4.41
1.3264e-05
3.631e-08
d
yr
n .2237213103931424 1.8441e-09 deg/d
Q 2.990984449523584 1.6436e-08 au
  Orbit Determination Parameters
   # obs. used (total)      795  
   data-arc span      8488 days (23.24 yr)  
   first obs. used      1996-07-26  
   last obs. used      2019-10-22  
   planetary ephem.      DE431  
   SB-pert. ephem.      SB431-N16  
   condition code      0  
   norm. resid. RMS      .54006  
   source      ORB  
   producer      Otto Matic  
   solution date      2019-Nov-07 10:11:04  

Additional Information
 Earth MOID = 1.38885 au 
 Jupiter MOID = 2.4008 au 
 T_jup = 3.324 
[ show covariance matrix ]

Ephemeris | Orbit Diagram | Orbital Elements | Mission Design | Physical Parameters | Discovery Circumstances ]

Physical Parameter Table
Parameter Symbol Value Units Sigma Reference Notes
absolute magnitude H 14.6   n/a MPO449530  

85386 Payton           Discovered 1996 July 26 by AMOS at Haleakala.
Walter "Sweetness" Payton (1954-1999) was one of the greatest running backs ever to play in the National Football League. He is considered by many to be the best all-around football player ever. His 13-year career was with the Chicago Bears. He was inducted into the Pro Football Hall of Fame in 1993.
NOTE: some special characters may not display properly (any characters within {} are an attempt to place the proper accent above a character)
Reference: 20080520/MPCPages.arcLast Updated: 2008-05-22

Alternate Designations
 1996 OU2 = 2001 TP118 
Ephemeris | Orbit Diagram | Orbital Elements | Mission Design | Physical Parameters | Discovery Circumstances ]
ABOUT SSD CREDITS/AWARDS PRIVACY/COPYRIGHT GLOSSARY LINKS
FirstGov
(server date/time)  
NASA Home Page
Site Manager:   Ryan S. Park
Webmaster  Alan B. Chamberlin